Home > Weather > Inglewood > Past weeks

Flag for USA Weather for the Past 2 Weeks in Inglewood, California, USA

Now
60 °F

Overcast.


Feels Like: 60 °F
Forecast: 56 / 67 °F
Wind: 3 mph from North

Location: Hawthorne Municipal Airport

Current Time: May 4, 2016 at 2:15:58 PM

Latest Report: May 4, 2016 at 10:53 AM


Visibility: 8 mi

Pressure: 29.97 "Hg

Humidity: 80%

Dew Point: 54 °F

Location of InglewoodLocation

Historic Weather in Inglewood — Graph

°F

Inglewood Temperature Yesterday

Maximum temperature yesterday: 70 °F (at 3:53 PM)
Minimum temperature yesterday: 58 °F (at 5:53 AM)
Average temperature yesterday: 63 °F

High & Low Weather Summary for the Past Weeks

 TemperatureHumidityPressure
High85 °F (Apr 19, 11:53 AM)90% (May 4, 3:53 AM)30.05 "Hg (May 4, 3:53 AM)
Low53 °F (Apr 26, 3:53 AM)13% (Apr 19, 10:53 AM)29.72 "Hg (Apr 27, 8:53 PM)
Average63 °F62%29.92 "Hg
* Reported Apr 19 10:53 AM — May 4 10:53 AM, Inglewood, Weather by CustomWeather, © 2016

Note: Actual official high and low records may vary slightly from our data, if they occured in-between our weather recording intervals... More about our weather records

Advertising

Inglewood Weather History for the Previous 24 Hours

Scroll right to see more
 ConditionsComfort  
Time TempWeatherWind HumidityBarometerVisibility
10:53 AM
Wed, May 4
60 °FOvercast.3 mph80%29.97 "Hg8 mi
9:53 AM60 °FMostly cloudy.7 mph80%29.97 "Hg10 mi
9:00 AM59 °FOvercast.7 mph81%29.98 "Hg10 mi
8:00 AM59 °FOvercast.5 mph84%29.97 "Hg6 mi
7:01 AM58 °FFog.No wind87%29.95 "Hg6 mi
5:53 AM59 °FLow clouds.6 mph84%29.94 "Hg7 mi
4:53 AM58 °FLow clouds.No wind87%29.93 "Hg7 mi
3:53 AM57 °FLow clouds.No wind90%29.93 "Hg7 mi
2:53 AM57 °FPassing clouds.No wind87%29.95 "Hg10 mi
1:53 AM57 °FPassing clouds.No wind87%29.96 "Hg10 mi
12:53 AM58 °FClear.3 mph84%29.97 "Hg10 mi
11:53 PM
Tue, May 3
59 °FClear.No wind81%29.96 "Hg10 mi
10:53 PM59 °FClear.No wind81%29.96 "Hg10 mi
9:53 PM59 °FPassing clouds.No wind81%29.96 "Hg10 mi
8:53 PM59 °FOvercast.6 mph84%29.95 "Hg10 mi
7:53 PM60 °FLow clouds.13 mph80%29.93 "Hg10 mi
6:53 PM62 °FPartly sunny.13 mph80%29.91 "Hg10 mi
6:00 PM64 °FPartly sunny.10 mph75%29.91 "Hg10 mi
4:53 PM66 °FPassing clouds.15 mph73%29.91 "Hg8 mi
3:53 PM70 °FSunny.13 mph61%29.91 "Hg10 mi
2:53 PM68 °FSunny.7 mph63%29.92 "Hg10 mi
Weather by CustomWeather, © 2016

See weather overviewHow to use our weather pages